AMX292 SPJC-MMMX

Flight info

Callsign AMX292
Flight time N/A
Altitude 31000
Route TELEB DCT ATATU/N0470F320 UV1 TAL UM542 ATENO UL203 EKEDA/N0466F340 UL203 LIXAS UZ512 RADIM UL318 ALSAL/N0461F360 UL318 IZT UT157 LARLO LARLO3B
Aircraft B738/M-SDGIJ1LRWY/SB1

Departure

Time N/A
Airport Jorge Chávez International Airport (SPJC)

Arrival

Time 2026-05-03 22:31
Airport Mexico City Benito Juárez International Airport (MMMX)
Time Latitude Longitude Altitude Speed Heading
2026-05-03 22:02 18.26869 -97.87345 36248 ft 439 kts 314°
2026-05-03 22:03 18.31311 -97.91869 36265 ft 438 kts 314°
2026-05-03 22:03 18.33504 -97.94104 36107 ft 436 kts 315°
2026-05-03 22:03 18.35673 -97.96314 35701 ft 431 kts 315°
2026-05-03 22:04 18.37811 -97.98495 35140 ft 427 kts 315°
2026-05-03 22:04 18.39918 -98.00646 34488 ft 426 kts 315°
2026-05-03 22:04 18.42044 -98.02818 34074 ft 418 kts 315°
2026-05-03 22:04 18.44111 -98.04930 33651 ft 412 kts 316°
2026-05-03 22:05 18.46148 -98.07012 33196 ft 407 kts 316°
2026-05-03 22:05 18.48179 -98.09090 32747 ft 401 kts 316°
2026-05-03 22:05 18.50158 -98.11114 32325 ft 397 kts 316°
2026-05-03 22:05 18.52135 -98.13139 31869 ft 393 kts 316°
2026-05-03 22:06 18.54083 -98.15134 31432 ft 396 kts 316°
2026-05-03 22:06 18.56102 -98.17198 30966 ft 410 kts 316°
2026-05-03 22:06 18.58155 -98.19297 30464 ft 416 kts 316°
2026-05-03 22:06 18.60224 -98.21412 29976 ft 412 kts 316°
2026-05-03 22:07 18.62262 -98.23499 29493 ft 408 kts 316°
2026-05-03 22:07 18.64287 -98.25575 29020 ft 403 kts 316°
2026-05-03 22:07 18.66279 -98.27616 28549 ft 399 kts 316°
2026-05-03 22:07 18.68303 -98.29629 28092 ft 394 kts 319°
2026-05-03 22:08 18.70437 -98.31396 27632 ft 390 kts 328°
2026-05-03 22:08 18.72857 -98.32647 27341 ft 381 kts 340°
2026-05-03 22:08 18.75360 -98.33356 27334 ft 373 kts 348°
2026-05-03 22:08 18.77936 -98.33765 27351 ft 378 kts 352°
2026-05-03 22:09 18.80597 -98.34051 27357 ft 387 kts 354°
2026-05-03 22:09 18.83314 -98.34286 27284 ft 388 kts 354°
2026-05-03 22:09 18.85989 -98.34499 26874 ft 386 kts 355°
2026-05-03 22:10 18.91305 -98.34917 25946 ft 379 kts 355°
2026-05-03 22:10 18.93935 -98.35129 25482 ft 375 kts 354°
2026-05-03 22:10 18.96545 -98.35345 25010 ft 372 kts 354°
2026-05-03 22:10 18.99098 -98.35559 24553 ft 369 kts 354°
2026-05-03 22:11 19.01647 -98.35775 24095 ft 365 kts 354°
2026-05-03 22:11 19.04156 -98.35989 23632 ft 362 kts 354°
2026-05-03 22:11 19.06674 -98.36204 23162 ft 359 kts 354°
2026-05-03 22:11 19.09174 -98.36418 22713 ft 355 kts 354°
2026-05-03 22:12 19.11628 -98.36629 22262 ft 352 kts 354°
2026-05-03 22:12 19.14077 -98.36839 21814 ft 349 kts 354°
2026-05-03 22:12 19.16478 -98.37052 21471 ft 344 kts 354°
2026-05-03 22:12 19.18821 -98.37347 21451 ft 338 kts 351°
2026-05-03 22:13 19.21178 -98.37723 21297 ft 340 kts 351°
2026-05-03 22:13 19.23525 -98.38123 20903 ft 338 kts 350°
2026-05-03 22:13 19.25839 -98.38519 20474 ft 336 kts 350°
2026-05-03 22:13 19.28131 -98.38903 20022 ft 335 kts 350°
2026-05-03 22:14 19.30454 -98.39285 19572 ft 334 kts 351°
2026-05-03 22:14 19.32740 -98.39657 19038 ft 335 kts 351°
2026-05-03 22:14 19.35082 -98.40035 18478 ft 338 kts 351°
2026-05-03 22:14 19.37401 -98.40407 17996 ft 338 kts 351°
2026-05-03 22:15 19.39728 -98.40779 17548 ft 337 kts 351°
2026-05-03 22:15 19.42023 -98.41145 17099 ft 335 kts 351°
2026-05-03 22:15 19.44340 -98.41513 16662 ft 333 kts 351°
2026-05-03 22:15 19.46621 -98.41877 16247 ft 332 kts 351°
2026-05-03 22:16 19.48916 -98.42244 15816 ft 330 kts 351°
2026-05-03 22:16 19.51170 -98.42605 15394 ft 329 kts 351°
2026-05-03 22:16 19.53417 -98.42965 15222 ft 321 kts 350°
2026-05-03 22:16 19.55629 -98.43318 15225 ft 321 kts 351°
2026-05-03 22:17 19.57840 -98.43672 15227 ft 316 kts 351°
2026-05-03 22:17 19.59973 -98.44012 15226 ft 301 kts 350°
2026-05-03 22:17 19.61988 -98.44391 15231 ft 286 kts 346°
2026-05-03 22:17 19.63922 -98.44898 15238 ft 284 kts 343°
2026-05-03 22:18 19.65843 -98.45459 15239 ft 287 kts 343°
2026-05-03 22:18 19.67776 -98.46020 15236 ft 289 kts 343°
2026-05-03 22:18 19.69714 -98.46564 15234 ft 289 kts 344°
2026-05-03 22:18 19.71667 -98.47106 15231 ft 289 kts 342°
2026-05-03 22:19 19.73585 -98.47819 15227 ft 288 kts 334°
2026-05-03 22:19 19.75309 -98.48869 15224 ft 288 kts 324°
2026-05-03 22:19 19.76920 -98.50127 15217 ft 285 kts 321°
2026-05-03 22:19 19.78507 -98.51459 15216 ft 287 kts 320°
2026-05-03 22:20 19.80056 -98.52760 15211 ft 286 kts 321°
2026-05-03 22:20 19.81649 -98.54073 15215 ft 287 kts 321°
2026-05-03 22:20 19.83198 -98.55386 15209 ft 286 kts 318°
2026-05-03 22:20 19.84581 -98.56905 15212 ft 286 kts 307°
2026-05-03 22:21 19.85686 -98.58644 15211 ft 286 kts 301°
2026-05-03 22:21 19.86674 -98.60499 15205 ft 287 kts 298°
2026-05-03 22:21 19.87614 -98.62381 15203 ft 287 kts 294°
2026-05-03 22:21 19.88225 -98.64384 15205 ft 288 kts 279°
2026-05-03 22:22 19.88155 -98.66499 15211 ft 290 kts 255°
2026-05-03 22:22 19.87267 -98.68446 15203 ft 295 kts 234°
2026-05-03 22:22 19.85837 -98.69997 15185 ft 296 kts 217°
2026-05-03 22:22 19.84012 -98.70998 15178 ft 297 kts 200°
2026-05-03 22:23 19.82011 -98.71669 15172 ft 299 kts 197°
2026-05-03 22:23 19.80009 -98.72272 15181 ft 297 kts 197°
2026-05-03 22:23 19.78045 -98.72887 15022 ft 293 kts 198°
2026-05-03 22:23 19.76094 -98.73534 14691 ft 291 kts 199°
2026-05-03 22:24 19.74168 -98.74191 14332 ft 290 kts 198°
2026-05-03 22:24 19.72248 -98.74854 13975 ft 290 kts 199°
2026-05-03 22:24 19.70341 -98.75513 13611 ft 289 kts 199°
2026-05-03 22:24 19.68417 -98.76180 13235 ft 289 kts 198°
2026-05-03 22:25 19.66503 -98.76840 12868 ft 288 kts 198°
2026-05-03 22:25 19.64601 -98.77495 12523 ft 286 kts 198°
2026-05-03 22:25 19.62729 -98.78139 12366 ft 276 kts 198°
2026-05-03 22:25 19.60944 -98.78758 12290 ft 263 kts 199°
2026-05-03 22:26 19.59302 -98.79536 12191 ft 250 kts 213°
2026-05-03 22:26 19.58099 -98.80778 11966 ft 243 kts 237°
2026-05-03 22:26 19.57269 -98.82343 11641 ft 242 kts 242°
2026-05-03 22:26 19.56503 -98.83906 11348 ft 239 kts 241°
2026-05-03 22:27 19.55706 -98.85422 11207 ft 231 kts 239°
2026-05-03 22:27 19.54889 -98.86903 11006 ft 235 kts 238°
2026-05-03 22:27 19.54048 -98.88404 10667 ft 239 kts 238°
2026-05-03 22:27 19.53200 -98.89932 10463 ft 237 kts 238°
2026-05-03 22:28 19.52366 -98.91444 10177 ft 238 kts 238°
2026-05-03 22:28 19.51530 -98.92927 9847 ft 230 kts 237°
2026-05-03 22:28 19.50719 -98.94353 9563 ft 220 kts 237°
2026-05-03 22:28 19.49960 -98.95703 9287 ft 211 kts 237°
2026-05-03 22:29 19.49225 -98.97015 9051 ft 202 kts 237°
2026-05-03 22:29 19.48510 -98.98282 8753 ft 198 kts 237°
2026-05-03 22:29 19.47835 -98.99486 8554 ft 186 kts 237°
2026-05-03 22:29 19.47179 -99.00646 8281 ft 179 kts 237°
2026-05-03 22:30 19.46543 -99.01772 8074 ft 178 kts 236°
2026-05-03 22:30 19.45911 -99.02892 7860 ft 178 kts 236°
2026-05-03 22:30 19.45275 -99.04024 7648 ft 178 kts 236°
2026-05-03 22:30 19.44635 -99.05148 7411 ft 178 kts 236°
2026-05-03 22:31 19.44018 -99.06235 7328 ft 155 kts 239°
2026-05-03 22:31 19.43595 -99.06996 7330 ft 85 kts 239°
2026-05-03 22:31 19.43393 -99.07353 7330 ft 33 kts 239°
2026-05-03 22:31 19.43265 -99.07439 7331 ft 20 kts 194°
2026-05-03 22:32 19.43133 -99.07480 7331 ft 18 kts 220°
2026-05-03 22:32 19.43066 -99.07589 7331 ft 16 kts 240°
2026-05-03 22:32 19.43008 -99.07691 7331 ft 15 kts 238°
2026-05-03 22:32 19.42991 -99.07720 7331 ft 0 kts 238°